#timestamp,LO_Frequency 
1454763615.5,286046998.3
1454763635.4,286047000.5
1454763655.3,286047000.6
1454763675.3,286047000.7
1454763695.2,286046998.4
1454763715.1,286046999.9
1454763735.0,286047002.7
1454763735.9,286047002.7
1454763755.9,286046996.7
1454763775.8,286047001.2
1454763795.7,286046999.3
1454763815.6,286047000.2
1454763835.6,286047000.5
1454763855.5,286046998.2
1454763875.4,286047000.7
1454763895.4,286047000.7
1454763915.3,286047000.4
1454763935.2,286047002.7
1454763955.1,286046999.2
1454763975.1,286046998.6
1454763976.0,286046998.6
1454763995.9,286047000.2
1454764015.8,286047000.6
1454764035.7,68128778.8
1454764055.7,9999988.5
1454764075.6,286047025.0
1454764095.5,286046996.5
1454764115.4,286046999.3
1454764135.4,286047002.7
1454764155.3,286046993.3
1454764175.2,286047001.2
1454764195.1,286046998.0
1454764215.1,286046998.2
1454764216.0,286046998.2
1454764235.0,286047013.1
1454764235.9,286047013.1
1454764255.8,286046986.4
1454764275.8,286047001.2
1454764295.7,286046995.0
1454764315.6,286047001.2
1454764335.6,286046997.8
1454764355.5,286046998.3
1454764375.4,286046999.8
1454764395.4,286047000.4
1454764415.3,286047000.8
1454764435.2,286046998.6
1454764455.2,286047002.5
1454764475.1,286046998.4
1454764476.0,286046998.4
1454764495.0,286047001.8
1454764495.9,286047001.8
1454764515.9,286046998.3
1454764535.8,286046999.0
1454764555.7,286047001.1
1454764575.6,286046998.5
1454764595.6,286046998.1
1454764615.5,286047002.1
1454764635.4,286046998.4
1454764655.3,286046998.8
1454764675.3,286046999.4
1454764695.2,286046998.6
1454764715.1,286047000.8
1454764735.0,286046999.2
1454764735.9,286046999.2
1454764755.9,286046998.9
1454764775.8,286047000.8
1454764795.7,286046996.9
1454764815.6,286046998.2
1454764835.6,286047002.7
1454764855.5,286046996.7
1454764875.4,286047000.5
1454764895.3,286046998.4
1454764915.3,286047001.1
1454764935.2,286046997.7
1454764955.1,286046996.7
1454764975.0,286047002.5
1454764976.0,286047002.5
1454764995.9,286046995.6
1454765015.8,286046999.0
1454765035.7,286047000.3
1454765055.7,286046998.2
1454765075.6,286047000.6
1454765095.5,286046996.7
1454765115.4,286047000.7
1454765135.4,286047001.0
1454765155.3,286046998.8
1454765175.2,286047000.4
1454765195.1,286047001.2
1454765215.1,286046997.3
1454765216.0,286046997.3
1454765235.9,286047002.6
1454765255.8,286046998.7
1454765275.8,286047000.3
1454765295.7,286046999.9
1454765315.6,286046998.1
1454765335.5,286047000.1
1454765355.5,286047000.8
1454765375.4,286046999.5
1454765395.3,286046997.6
1454765415.2,286046999.0
1454765435.2,286046999.1
1454765455.1,286047001.1
1454765456.0,286047001.1
1454765475.0,286046997.6
1454765475.9,286046997.6
1454765495.9,286047002.6
1454765515.8,286046998.3
1454765535.7,286047000.8
1454765555.6,286046999.5
1454765575.6,286046999.1
1454765595.5,286046998.9
1454765615.4,286047000.7
1454765635.3,286046996.9
1454765655.3,286046998.8
1454765675.2,286046999.6
1454765695.1,286046997.1
1454765715.0,26923075.3
1454765715.9,26923075.3
1454765735.9,7268325.4
1454765755.8,9999986.6
1454765775.7,286047032.8
1454765795.7,286046999.4
1454765815.6,286046998.4
1454765835.5,286047002.3
1454765855.4,286046996.6
1454765875.4,286047002.4
1454765895.3,286046998.8
1454765915.2,286046998.9
1454765935.1,286047001.1
1454765955.1,286046996.8
1454765956.0,286046996.8
1454765975.9,286047003.2
1454765995.8,286047000.8
1454766015.7,286046999.6
1454766035.7,286047001.2
1454766055.6,286046998.8
1454766075.5,286047001.1
1454766095.5,286046998.7
1454766115.4,286047000.8
1454766135.3,286046998.2
1454766155.2,286047000.2
1454766175.2,286047001.1
1454766195.1,286046997.3
1454766196.0,286046997.3
1454766215.0,286047001.6
1454766215.9,286047001.6
1454766235.9,286047001.1
1454766255.8,286046999.5
1454766275.7,286046999.1
1454766295.6,286046999.6
1454766315.6,286046998.8
1454766335.5,286047000.7
1454766355.4,286046999.4
1454766375.3,286046999.0
1454766395.3,286046998.9
1454766415.2,286047001.0
1454766435.1,286046998.3
1454766455.0,286047000.5
1454766455.9,286047000.5
1454766475.9,286046997.5
1454766495.8,286046999.1
1454766515.7,286046998.1
1454766535.7,286047002.3
1454766555.6,286047001.0
1454766575.5,286046998.9
1454766595.4,286047000.3
1454766615.4,286047000.9
1454766635.3,286046996.9
1454766655.2,286047000.1
1454766675.1,286047001.0
1454766695.1,286046996.7
1454766696.0,286046996.7
1454766715.0,286047003.5
1454766715.9,286047003.5
1454766735.8,286046996.3
1454766755.8,286046997.9
1454766775.7,286046999.5
1454766795.6,286046996.9
1454766815.5,286047000.0
1454766835.5,286047001.1
1454766855.4,286047000.8
1454766875.3,286046999.0
1454766895.2,286046999.2
1454766915.2,286046998.6
1454766935.1,286047001.0
1454766955.0,286047000.7
1454766955.9,286047000.7
1454766975.9,286046998.8
1454766995.8,286047000.3
1454767015.7,286046999.9
1454767035.6,286046998.1
1454767055.6,286047002.5
1454767075.5,286046998.6
1454767095.4,286047000.0
1454767115.3,286047000.6
1454767135.3,286046996.6
1454767155.2,286047002.8
1454767175.1,286046999.3
1454767195.0,286046999.0
1454767196.0,286046999.0
